Back to catalog

COSMOS 1867 COOLANT

AliveLEO
NORAD 39662·DEBRIS·🇷🇺 Russia

Launched Jul 10, 1987 from Baikonur Cosmodrome

Loading…

Next Passes (next 24 hours)

TLE

FreshSource: Space-Track

Epoch: Sep 14, 2026, 07:40 UTC

1 39662U 87060Z   26257.32011912  .00000208  00000-0  10892-3 0  9991
2 39662  65.0068 114.6388 0017790 281.5316  78.3773 14.34693695648287

Track COSMOS 1867 COOLANT in real time with AllMySat

Download on the App Store